Temp
65 64 62 62 55 48 42 47 50 53 53 56 58 57 54 57 57 52 62 65 65 67 70 73 75 76 77 76 76 76 76 77 77 77 77 77 77 76 76 75 75 75 76 75 74 74 73 73 73
63 67 62 53 47 41 45 48 51 54 56 57 57 56 56 54 60 64 62 66 66 68 70 72 73 76 77 76 76 76 76 77 77 77 77 77 76 76 76 75 75 75 75 74 74 73 72 72 72
66 65 59 48 41 42 45 49 50 55 56 55 54 57 57 58 60 61 63 66 66 67 69 71 72 76 76 76 75 75 76 76 77 77 77 76 76 76 76 75 75 75 74 73 73 72 71 71 71
63 61 55 49 43 46 47 50 52 54 56 56 55 53 59 61 61 61 63 65 65 66 68 70 73 75 76 76 75 75 75 76 76 76 77 77 75 74 74 74 75 75 74 73 72 71 70 69 69
58 54 48 44 43 46 50 54 53 53 54 55 55 53 56 60 61 61 61 64 64 65 67 69 72 74 75 76 75 75 75 75 75 76 75 75 74 74 73 73 74 74 74 72 71 70 69 68 68
55 51 45 41 43 49 52 51 53 52 54 56 54 52 56 60 60 60 61 62 63 65 66 68 68 70 73 74 74 74 74 74 75 75 75 75 74 73 73 73 73 75 72 72 70 69 68 67 67
51 46 41 39 43 48 51 55 51 51 53 54 55 53 57 60 62 60 59 58 61 64 65 66 68 69 68 70 71 72 73 73 73 74 74 73 72 72 72 72 72 74 73 71 70 68 67 67 67
51 49 40 38 43 46 53 56 54 53 55 61 58 53 53 58 60 58 57 58 56 62 64 64 66 70 69 68 67 68 70 70 71 70 70 68 68 69 69 68 70 72 72 70 69 68 67 66 65
52 46 41 44 46 48 52 54 55 56 53 57 57 56 59 59 58 56 56 59 58 60 60 62 64 69 70 69 66 65 66 67 67 67 65 64 65 65 65 64 67 70 70 70 69 67 66 62 59
50 43 46 49 49 48 52 50 52 54 52 52 55 59 60 59 57 56 54 54 55 57 60 60 63 67 69 70 69 67 66 66 66 66 65 64 63 63 65 62 65 67 67 68 68 67 62 55 47
47 47 48 52 53 52 52 51 52 49 53 52 52 57 55 51 50 50 49 48 48 50 53 57 60 67 67 68 67 67 67 66 64 65 64 64 63 62 62 62 62 61 60 57 59 54 51 50 47
46 52 52 55 54 52 51 53 52 53 54 55 53 53 49 47 47 47 47 47 47 48 50 51 54 61 67 67 67 67 66 66 65 64 64 63 62 61 60 60 59 59 58 57 53 51 50 49 48
48 50 53 55 54 53 53 52 51 55 53 54 52 49 46 45 45 46 46 47 47 47 48 49 50 54 63 65 66 66 65 65 65 64 63 62 62 60 60 59 58 58 57 56 54 51 49 47 47
50 50 53 54 53 53 52 48 49 52 52 51 49 44 43 44 43 43 44 45 45 47 47 49 51 52 59 62 64 64 65 65 64 63 63 62 61 60 59 58 58 57 57 56 54 53 48 46 45
50 48 50 51 50 52 52 48 49 52 51 46 43 42 43 43 43 41 43 43 43 45 47 48 51 54 57 58 59 61 62 62 62 62 61 61 61 61 59 58 57 57 56 54 52 51 49 45 45
45 44 42 49 49 50 50 46 52 51 49 42 41 39 41 42 42 42 42 42 43 44 45 47 50 52 56 56 57 59 60 60 60 61 61 61 61 61 59 57 56 56 54 53 51 50 49 47 43
40 37 39 46 49 48 46 45 51 47 47 40 38 38 40 40 41 42 42 42 42 43 44 46 47 49 55 57 58 56 55 55 54 54 55 58 58 58 58 57 56 54 53 52 51 49 48 47 44
37 35 38 40 45 46 42 45 48 42 41 37 35 36 37 38 39 41 41 42 42 43 44 45 47 47 52 56 55 53 52 51 51 49 50 52 53 55 55 54 53 53 51 50 49 48 46 46 46
41 38 38 41 46 42 44 44 42 40 38 36 36 36 37 37 40 41 41 40 40 41 42 43 43 44 47 45 45 49 47 48 48 48 47 48 49 50 51 51 51 51 49 48 47 46 46 46 45
40 36 37 42 44 44 42 42 37 38 36 37 36 35 36 37 38 39 39 38 38 38 40 41 42 42 43 43 43 43 42 44 46 46 45 45 45 46 48 48 48 48 48 47 46 45 44 45 44
38 37 37 41 40 40 38 38 36 36 37 38 37 36 37 36 36 36 36 35 35 36 36 39 40 40 41 42 43 42 41 41 41 40 40 40 41 41 42 42 42 43 45 44 45 45 44 42 44
37 43 42 40 36 32 35 30 35 34 34 35 35 33 34 34 35 36 35 34 33 34 35 37 39 40 40 41 41 39 38 37 34 36 37 38 39 39 39 39 39 39 39 37 38 41 40 41 41
41 43 40 37 33 31 31 29 33 33 30 32 32 33 33 35 35 34 34 35 34 34 33 34 37 38 38 38 38 38 35 35 34 34 35 35 36 37 37 37 37 37 38 36 36 36 36 37 37
44 40 38 33 31 25 32 33 31 31 34 32 33 33 35 34 34 34 34 35 34 33 33 33 36 35 36 37 36 36 35 34 34 33 33 33 33 35 36 37 36 36 36 36 36 36 35 35 34
40 37 29 26 23 26 29 28 34 35 34 36 35 34 34 34 33 33 33 33 33 33 33 35 34 33 33 34 34 34 33 32 32 32 32 32 32 32 34 35 35 36 36 35 35 35 34 34 34
37 37 29 20 20 24 30 27 35 34 34 36 38 36 34 33 34 34 33 33 33 33 32 32 32 32 32 32 32 32 33 32 32 32 31 31 32 35 35 35 35 35 36 35 35 34 34 34 33
35 33 36 27 15 20 28 32 33 33 31 32 33 33 33 33 34 34 33 33 32 32 32 32 32 32 32 32 31 31 31 31 31 30 30 30 30 34 31 30 30 31 32 31 31 30 29 30 32
38 39 31 28 17 14 26 27 31 30 30 31 31 32 33 34 34 33 33 33 33 32 32 32 32 32 31 31 31 31 30 30 30 29 29 29 29 29 29 29 28 28 28 28 28 27 29 28 28
33 32 32 32 26 18 14 26 34 35 33 32 33 35 35 35 34 33 33 33 33 32 31 31 31 31 31 31 31 30 30 30 29 29 28 28 28 28 28 28 27 27 27 27 26 25 26 26 26
34 35 34 30 25 23 24 30 35 34 36 36 35 36 35 35 34 33 33 32 31 31 31 31 32 31 32 31 31 30 30 29 29 28 28 28 27 27 27 28 28 28 28 27 26 26 26 25 25
MSLP
1014.31 1014.31 1014.46 1014.98 1016.65 1017.29 1017.33 1016.74 1015.86 1015.30 1014.98 1014.68 1014.61 1014.73 1014.90 1014.90 1015.19 1015.71 1015.00 1015.03 1015.23 1015.32 1015.54 1015.80 1016.09 1016.45 1016.86 1017.17 1017.47 1017.78 1018.01 1018.26 1018.42 1018.59 1018.75 1018.88 1019.14 1019.31 1019.61 1019.93 1019.87 1020.03 1020.21 1020.37 1020.41 1020.45 1020.49 1020.53 1020.54
1014.44 1014.43 1014.96 1016.24 1017.41 1018.08 1017.51 1016.41 1015.66 1015.04 1014.71 1014.55 1014.58 1014.65 1014.80 1014.96 1014.86 1014.93 1014.93 1015.09 1015.28 1015.48 1015.64 1015.90 1016.17 1016.43 1016.77 1017.23 1017.57 1017.84 1018.10 1018.30 1018.53 1018.75 1018.91 1019.05 1019.31 1019.52 1019.84 1020.10 1020.17 1020.34 1020.58 1020.70 1020.79 1020.85 1020.81 1020.95 1020.90
1014.34 1014.60 1015.98 1017.14 1018.35 1018.19 1017.18 1016.04 1015.37 1014.92 1014.65 1014.57 1014.65 1014.57 1014.73 1014.82 1014.84 1014.93 1014.95 1015.08 1015.30 1015.55 1015.78 1016.05 1016.29 1016.48 1016.73 1017.07 1017.48 1017.86 1018.15 1018.39 1018.62 1018.86 1019.06 1019.27 1019.55 1019.64 1019.89 1020.12 1020.32 1020.52 1020.82 1021.01 1021.18 1021.18 1021.15 1021.17 1021.30
1014.64 1015.45 1017.19 1017.48 1017.98 1017.26 1016.70 1015.91 1015.47 1015.02 1014.73 1014.64 1014.68 1014.81 1014.82 1014.77 1014.99 1015.09 1015.05 1015.16 1015.53 1015.71 1015.85 1016.03 1016.32 1016.51 1016.68 1016.92 1017.44 1017.82 1018.14 1018.36 1018.60 1018.90 1019.07 1019.24 1019.56 1019.91 1020.18 1020.33 1020.50 1020.59 1020.88 1021.14 1021.29 1021.37 1021.44 1021.51 1021.59
1015.53 1016.69 1017.63 1017.97 1017.72 1017.04 1016.49 1015.95 1015.63 1015.34 1015.00 1014.77 1014.75 1015.00 1015.04 1014.95 1015.11 1015.20 1015.34 1015.55 1015.71 1015.92 1015.97 1016.18 1016.39 1016.58 1016.73 1016.89 1017.29 1017.75 1018.04 1018.27 1018.55 1018.85 1019.13 1019.35 1019.72 1020.13 1020.39 1020.54 1020.64 1020.78 1021.03 1021.23 1021.43 1021.51 1021.65 1021.71 1021.72
1016.65 1017.61 1018.35 1018.41 1017.71 1016.99 1016.45 1016.07 1015.71 1015.46 1015.16 1014.98 1015.01 1015.05 1015.13 1015.07 1015.19 1015.45 1015.57 1015.69 1015.76 1016.08 1016.13 1016.27 1016.43 1016.62 1016.84 1017.02 1017.33 1017.78 1018.14 1018.38 1018.61 1018.84 1019.06 1019.18 1019.69 1020.16 1020.46 1020.67 1020.81 1020.81 1021.14 1021.37 1021.53 1021.66 1021.81 1021.87 1021.83
1017.14 1018.38 1018.77 1018.37 1017.78 1016.93 1016.32 1015.87 1015.74 1015.51 1015.27 1015.18 1015.12 1015.27 1015.26 1015.36 1015.50 1015.58 1015.70 1015.80 1015.82 1015.96 1016.18 1016.28 1016.38 1016.58 1016.77 1016.95 1017.28 1017.66 1018.08 1018.44 1018.65 1018.89 1018.99 1019.02 1019.53 1020.10 1020.52 1020.77 1020.89 1020.90 1021.17 1021.41 1021.58 1021.76 1021.90 1021.97 1022.02
1017.39 1018.35 1018.89 1018.34 1017.77 1016.90 1016.31 1015.89 1015.63 1015.56 1015.42 1015.31 1015.26 1015.63 1015.78 1015.80 1016.03 1015.97 1016.08 1016.16 1016.25 1016.33 1016.40 1016.54 1016.59 1016.72 1016.96 1017.08 1017.24 1017.56 1017.91 1018.25 1018.55 1018.77 1019.05 1019.34 1019.69 1020.11 1020.49 1020.73 1020.84 1020.91 1021.09 1021.45 1021.66 1021.88 1022.02 1022.14 1022.29
1017.35 1018.30 1018.80 1017.97 1017.66 1016.72 1016.44 1016.33 1015.88 1015.80 1015.84 1015.76 1015.65 1015.90 1016.28 1016.21 1016.13 1016.34 1016.63 1016.89 1016.97 1017.00 1017.07 1016.95 1017.07 1017.06 1017.13 1017.36 1017.62 1017.87 1018.06 1018.30 1018.58 1018.87 1019.16 1019.49 1019.89 1020.23 1020.53 1020.84 1020.98 1021.06 1021.19 1021.45 1021.67 1021.96 1022.16 1022.44 1022.68
1017.69 1018.61 1018.15 1017.48 1016.99 1016.64 1016.55 1016.61 1016.44 1016.41 1016.62 1016.42 1016.44 1016.42 1016.86 1016.72 1017.02 1017.33 1017.89 1018.11 1018.01 1017.72 1017.29 1017.12 1016.97 1016.98 1017.16 1017.25 1017.52 1017.90 1018.19 1018.37 1018.60 1018.87 1019.27 1019.69 1020.00 1020.22 1020.33 1020.63 1021.06 1021.27 1021.43 1021.66 1021.81 1022.04 1022.41 1022.84 1023.16
1017.78 1017.99 1017.71 1017.14 1016.89 1016.77 1016.72 1016.74 1016.67 1016.88 1016.87 1017.13 1017.55 1017.61 1018.02 1018.23 1018.43 1018.77 1019.20 1019.49 1019.42 1018.86 1017.93 1017.53 1017.07 1016.80 1016.87 1017.07 1017.45 1017.76 1018.07 1018.43 1018.75 1018.88 1019.10 1019.40 1019.80 1020.30 1020.60 1020.96 1021.15 1021.47 1021.75 1022.03 1022.15 1022.49 1022.82 1023.04 1023.30
1017.71 1017.46 1017.41 1017.06 1016.91 1016.94 1016.92 1016.79 1016.93 1017.30 1017.37 1017.80 1018.33 1018.80 1019.56 1019.93 1020.14 1020.31 1020.34 1020.29 1019.90 1019.30 1018.73 1018.00 1017.50 1016.85 1016.57 1016.90 1017.23 1017.57 1018.01 1018.31 1018.66 1018.92 1018.92 1019.35 1019.83 1020.25 1020.69 1021.00 1021.30 1021.62 1021.93 1022.21 1022.55 1022.83 1022.97 1023.10 1023.32
1017.56 1017.37 1017.28 1016.93 1017.03 1016.99 1016.93 1017.10 1017.35 1017.19 1017.82 1018.44 1019.32 1020.09 1020.84 1021.23 1021.38 1021.34 1021.23 1020.84 1020.41 1019.83 1019.16 1018.39 1017.74 1017.05 1016.61 1016.69 1016.96 1017.43 1017.96 1018.39 1018.68 1019.00 1019.25 1019.41 1019.73 1020.18 1020.49 1020.86 1021.18 1021.50 1021.84 1022.11 1022.53 1022.93 1023.20 1023.34 1023.47
1017.52 1017.51 1017.37 1017.00 1016.84 1016.87 1017.12 1017.33 1017.57 1018.11 1018.47 1019.55 1020.43 1021.41 1022.07 1022.32 1022.42 1022.09 1021.70 1021.46 1020.93 1020.33 1019.55 1018.62 1017.58 1016.68 1016.48 1016.79 1017.16 1017.65 1018.05 1018.37 1018.71 1019.03 1019.38 1019.52 1019.65 1020.11 1020.62 1020.87 1021.06 1021.18 1021.41 1021.82 1022.19 1022.70 1023.27 1023.54 1023.71
1017.67 1017.91 1017.63 1016.90 1016.74 1016.87 1017.02 1017.59 1017.78 1018.29 1019.26 1020.59 1021.79 1022.42 1022.90 1023.17 1022.99 1022.88 1022.74 1022.30 1021.76 1020.95 1020.09 1019.02 1017.89 1016.72 1016.63 1017.14 1017.60 1018.03 1018.41 1018.80 1019.07 1019.25 1019.45 1019.49 1019.66 1019.84 1020.26 1020.75 1021.10 1021.28 1021.36 1021.78 1022.22 1022.66 1023.05 1023.59 1023.80
1018.40 1018.53 1018.45 1017.18 1017.06 1016.97 1017.30 1017.64 1017.86 1019.10 1019.91 1021.71 1022.62 1023.20 1023.45 1023.61 1023.72 1023.51 1023.05 1022.63 1022.10 1021.31 1020.52 1019.61 1018.59 1017.65 1017.35 1017.59 1017.97 1018.45 1018.91 1019.25 1019.54 1019.72 1019.85 1020.00 1020.15 1020.23 1020.46 1020.79 1021.13 1021.43 1021.71 1022.06 1022.56 1022.78 1023.18 1023.51 1023.88
1019.46 1019.26 1018.94 1017.87 1017.21 1017.36 1017.77 1018.37 1018.51 1019.48 1020.63 1022.60 1023.56 1024.07 1024.18 1024.18 1023.91 1023.79 1023.51 1023.09 1022.64 1022.00 1021.18 1020.20 1019.36 1018.78 1018.47 1018.36 1018.84 1019.40 1020.00 1020.34 1020.81 1020.78 1021.03 1020.92 1020.78 1020.73 1020.90 1021.21 1021.53 1021.62 1021.94 1022.27 1022.68 1023.00 1023.37 1023.57 1023.77
1019.44 1019.59 1019.13 1018.46 1017.88 1017.80 1018.42 1018.98 1019.63 1021.26 1022.01 1023.73 1024.46 1024.84 1024.97 1024.91 1024.84 1024.49 1023.85 1023.39 1023.10 1022.60 1022.00 1021.29 1020.55 1019.86 1019.62 1019.55 1020.08 1020.67 1021.13 1021.76 1022.05 1022.34 1022.28 1022.07 1021.87 1021.71 1021.73 1022.04 1022.26 1022.53 1022.78 1023.04 1023.31 1023.58 1023.80 1023.92 1023.95
1018.88 1019.19 1019.08 1018.46 1018.21 1018.52 1018.76 1019.58 1020.71 1022.08 1023.23 1024.32 1024.96 1025.38 1025.54 1025.51 1025.54 1025.21 1024.86 1024.20 1023.48 1023.10 1022.45 1022.15 1021.64 1021.51 1020.83 1020.41 1020.97 1021.70 1022.55 1023.17 1023.21 1023.53 1023.62 1023.39 1023.33 1023.00 1022.86 1022.93 1023.02 1023.09 1023.54 1023.84 1024.07 1024.02 1024.18 1024.12 1024.21
1019.12 1019.37 1019.32 1018.93 1018.58 1018.91 1019.24 1020.15 1021.54 1022.71 1023.98 1024.78 1025.53 1025.99 1026.05 1026.07 1025.99 1025.70 1025.36 1024.96 1024.46 1024.12 1023.53 1023.26 1022.97 1022.46 1022.09 1021.79 1022.43 1022.88 1023.60 1024.23 1024.58 1024.71 1024.75 1024.64 1024.52 1024.29 1024.00 1024.00 1024.03 1024.00 1023.94 1024.14 1024.37 1024.70 1024.86 1024.73 1024.50
1019.19 1019.39 1019.45 1019.37 1019.24 1019.37 1019.94 1020.46 1021.70 1023.27 1024.07 1025.01 1025.66 1026.02 1026.30 1026.52 1026.60 1026.57 1026.22 1025.87 1025.51 1025.10 1024.68 1024.48 1024.05 1023.58 1023.33 1023.06 1023.11 1023.62 1024.11 1024.81 1025.16 1025.82 1025.95 1026.01 1025.87 1025.78 1025.65 1025.49 1025.29 1025.14 1024.91 1025.04 1025.14 1025.14 1025.01 1025.24 1025.08
1018.96 1018.61 1019.07 1019.57 1020.13 1020.54 1020.72 1021.30 1021.62 1022.86 1024.05 1024.91 1025.66 1025.93 1026.31 1026.71 1026.88 1026.98 1026.85 1026.73 1026.38 1026.03 1025.59 1025.33 1025.02 1024.50 1024.39 1024.39 1024.25 1024.49 1025.42 1026.08 1026.77 1026.76 1026.90 1026.67 1026.61 1026.70 1026.77 1026.84 1026.65 1026.44 1026.28 1026.18 1026.04 1025.79 1025.82 1025.59 1025.57
1018.37 1018.67 1019.50 1020.04 1020.75 1021.06 1021.27 1022.17 1021.29 1022.74 1023.97 1024.92 1025.78 1026.27 1026.27 1026.28 1026.55 1026.99 1027.21 1027.38 1027.12 1026.88 1026.55 1026.71 1025.96 1025.68 1025.63 1025.27 1025.38 1025.94 1026.62 1027.28 1027.57 1027.49 1027.41 1027.73 1027.63 1027.47 1027.45 1027.46 1027.23 1027.33 1027.25 1027.28 1027.00 1026.65 1026.42 1026.73 1026.55
1018.36 1019.23 1020.35 1021.22 1021.88 1022.03 1021.33 1021.85 1021.38 1022.01 1022.27 1023.72 1025.02 1026.16 1026.52 1026.62 1027.00 1027.15 1027.26 1027.43 1027.53 1027.61 1027.26 1027.18 1026.77 1026.90 1026.78 1026.64 1026.75 1026.90 1027.14 1027.68 1027.82 1028.09 1028.10 1028.39 1028.49 1028.28 1028.14 1028.06 1027.92 1027.80 1027.86 1028.03 1027.83 1027.41 1027.02 1027.01 1027.06
1018.39 1019.70 1021.20 1022.27 1022.84 1022.13 1021.93 1022.41 1020.68 1021.10 1021.91 1022.63 1023.77 1025.15 1026.02 1026.58 1027.11 1027.57 1027.74 1027.71 1027.67 1027.66 1027.89 1027.65 1027.27 1027.70 1027.78 1027.53 1027.52 1027.58 1027.82 1028.01 1028.41 1028.47 1028.69 1028.90 1028.97 1029.02 1028.91 1028.82 1028.66 1028.52 1028.19 1028.06 1028.04 1028.25 1027.74 1027.70 1027.39
1018.37 1019.17 1020.68 1022.05 1023.23 1022.75 1022.32 1021.75 1020.38 1021.22 1021.87 1022.40 1023.45 1024.68 1025.59 1026.26 1026.79 1027.52 1027.78 1027.82 1027.84 1027.84 1027.92 1028.07 1027.99 1028.09 1028.21 1028.33 1028.52 1028.61 1028.53 1028.48 1028.85 1028.88 1029.13 1029.25 1029.25 1029.33 1029.22 1029.18 1029.09 1028.89 1028.74 1028.78 1028.38 1028.43 1028.11 1027.61 1027.82
1018.76 1019.46 1019.87 1021.92 1024.34 1024.03 1021.86 1020.76 1020.68 1021.59 1022.30 1022.77 1023.62 1024.59 1025.31 1026.03 1026.48 1027.03 1027.36 1027.73 1027.86 1027.88 1028.03 1028.16 1028.11 1028.26 1028.32 1028.52 1028.90 1029.06 1029.07 1029.07 1029.09 1029.17 1029.33 1029.62 1029.82 1029.54 1029.49 1029.47 1029.31 1029.27 1029.13 1029.08 1028.92 1028.64 1028.51 1028.18 1027.92
1017.68 1018.84 1020.33 1021.75 1023.34 1023.65 1022.16 1021.13 1020.50 1021.54 1022.12 1022.82 1023.58 1024.09 1024.69 1025.45 1026.14 1026.57 1027.04 1027.29 1027.53 1027.64 1028.02 1028.15 1028.15 1028.41 1028.51 1028.72 1028.87 1029.11 1029.30 1029.32 1029.49 1029.52 1029.55 1029.85 1029.90 1029.73 1029.75 1029.57 1029.54 1029.27 1029.27 1029.07 1029.08 1028.92 1028.36 1028.15 1027.93
1018.56 1018.82 1019.83 1020.78 1021.84 1022.27 1022.36 1020.28 1019.18 1020.05 1021.27 1022.22 1022.86 1023.19 1023.79 1024.55 1025.29 1026.00 1026.32 1026.72 1026.98 1027.45 1027.49 1028.01 1028.38 1028.53 1028.70 1028.67 1028.83 1028.96 1029.17 1029.38 1029.29 1029.57 1029.69 1029.83 1029.84 1029.82 1029.84 1029.61 1029.55 1029.41 1029.34 1029.12 1028.93 1028.68 1028.31 1027.90 1027.57
1017.84 1018.21 1018.65 1020.04 1021.36 1021.84 1021.86 1019.25 1019.51 1019.55 1020.28 1021.19 1021.97 1022.55 1023.29 1024.06 1024.90 1025.58 1026.14 1026.51 1026.92 1027.39 1027.80 1027.85 1027.97 1028.28 1028.53 1028.60 1028.66 1029.02 1029.18 1029.29 1029.36 1029.40 1029.55 1029.82 1029.79 1029.69 1029.72 1029.51 1029.44 1029.05 1028.95 1028.92 1028.57 1028.31 1027.99 1027.56 1027.05
Wind_Speed
5 3 3 6 6 6 1 1 1 2 2 1 2 3 2 3 4 4 3 6 0 6 9 9 11 10 12 12 11 11 10 11 11 12 11 10 10 10 12 10 10 10 9 8 9 9 10 10 9
3 1 5 3 7 4 5 4 2 2 1 1 2 2 3 1 1 5 3 6 3 6 7 7 10 12 13 13 11 11 10 10 11 11 10 10 9 10 9 8 9 10 8 7 8 8 9 9 9
3 4 5 6 4 4 4 4 2 2 1 1 2 0 3 1 1 2 2 8 6 7 6 6 10 11 12 14 13 11 10 10 10 11 10 10 8 6 8 8 8 8 8 7 7 7 8 9 8
3 5 5 6 2 2 3 3 2 3 1 2 1 1 3 1 1 3 2 7 7 6 6 8 11 11 12 15 14 12 11 11 11 9 10 11 10 9 8 7 5 5 5 5 5 6 7 7 7
5 4 5 4 2 3 3 2 0 2 2 1 1 2 3 1 2 2 3 4 6 5 5 6 10 10 11 13 15 12 11 10 10 10 10 12 12 8 7 5 3 3 3 2 3 5 6 7 7
5 4 5 1 3 4 4 2 1 0 3 4 2 1 3 3 0 3 4 4 4 6 5 5 8 9 9 11 13 12 11 10 10 11 12 14 13 10 7 4 1 2 3 2 3 5 6 7 7
7 5 4 3 2 3 2 6 3 0 3 2 1 3 3 3 4 2 4 3 4 4 5 5 6 7 8 9 10 11 11 9 9 11 11 12 14 11 8 5 2 2 2 2 2 4 6 7 8
6 5 3 2 2 3 2 5 2 2 2 5 1 2 4 4 6 2 2 3 1 2 3 4 4 8 5 5 8 8 8 8 8 7 5 8 9 10 8 6 3 1 2 2 2 3 4 6 7
3 6 2 4 5 2 2 5 1 3 1 5 1 2 4 5 3 3 4 5 4 4 3 3 3 8 7 4 4 6 8 8 7 5 7 7 5 6 7 5 4 2 2 2 2 2 4 7 7
6 4 6 3 4 2 3 1 3 4 4 2 3 4 9 7 8 7 7 7 7 7 6 5 4 6 6 5 4 4 4 3 4 4 5 4 4 4 5 7 4 1 3 1 2 1 8 6 3
2 4 3 2 3 1 2 3 2 1 6 3 1 8 9 10 10 10 8 6 5 7 6 7 6 7 6 5 3 2 2 2 2 5 5 5 4 3 3 2 2 2 3 2 3 4 3 3 3
1 4 4 3 1 1 3 3 4 5 2 2 4 7 6 11 10 9 9 9 10 9 8 9 8 6 9 4 3 3 3 2 2 3 5 4 3 4 3 3 3 2 1 1 1 1 1 2 2
3 3 3 4 5 6 3 5 4 9 4 9 9 12 10 9 10 8 9 8 11 10 11 11 9 6 7 8 4 4 3 3 2 2 2 3 4 4 4 4 4 3 3 3 3 1 1 2 3
1 3 6 6 4 3 4 1 1 4 7 10 11 10 10 12 11 9 13 12 13 12 13 12 10 6 5 6 7 3 2 2 3 2 3 3 3 4 3 3 3 4 4 3 3 3 1 2 2
1 5 7 5 2 5 6 2 6 3 9 10 8 8 8 9 11 11 10 9 11 10 11 13 12 9 4 6 5 3 3 2 1 2 3 4 4 4 4 3 3 3 3 4 3 2 2 1 2
3 4 4 3 1 2 4 8 0 8 8 8 8 8 8 11 10 9 9 9 10 10 12 11 10 11 8 7 5 5 6 6 6 6 5 5 4 2 2 2 2 1 1 2 1 2 1 2 1
5 3 5 8 2 1 2 6 1 12 10 8 7 7 8 9 12 10 11 10 11 10 11 12 13 13 11 13 11 12 13 10 9 10 10 12 10 7 4 3 3 3 2 2 0 1 1 1 2
6 5 4 6 1 3 1 7 4 10 11 8 7 7 8 8 10 9 10 10 10 11 11 12 11 12 11 10 11 11 11 11 11 11 11 14 11 13 9 8 8 6 4 5 3 4 3 2 3
4 4 5 3 3 0 7 7 4 5 7 7 6 6 6 7 7 9 11 11 10 12 14 14 13 13 8 6 5 8 8 8 11 11 15 14 14 14 12 8 8 7 7 6 5 3 4 3 3
2 2 5 5 2 6 4 6 3 5 4 4 5 6 6 5 8 10 10 10 11 10 11 12 12 12 10 5 4 5 5 7 8 9 12 13 14 13 12 10 9 9 7 8 7 5 3 3 3
5 6 5 7 3 1 4 6 4 3 5 5 5 4 4 5 5 6 7 9 8 11 11 10 10 11 11 9 4 4 5 5 6 9 9 12 13 14 13 12 10 10 8 7 6 5 4 2 3
5 8 5 4 4 5 1 6 3 5 4 4 5 5 5 4 4 4 6 7 7 8 7 8 10 11 11 9 12 15 9 9 4 4 5 8 11 12 12 11 11 10 7 9 8 7 4 3 2
6 5 6 3 3 1 2 0 7 5 5 6 6 5 5 6 6 5 5 5 6 7 7 7 9 12 12 12 10 10 11 7 4 5 8 9 9 11 11 10 9 9 7 7 9 8 8 5 4
8 6 6 5 3 1 7 7 5 6 5 6 6 6 7 6 5 4 4 5 5 5 7 6 10 11 10 11 11 12 12 8 8 8 7 6 4 6 9 9 8 7 8 8 7 6 7 5 4
4 6 1 3 1 6 2 1 8 3 2 8 15 11 8 6 6 5 5 4 4 5 5 5 8 9 7 10 10 9 9 9 9 6 5 6 4 4 7 8 8 7 6 5 6 7 6 7 5
7 6 7 7 4 4 2 7 7 3 3 6 11 9 7 8 6 6 6 5 5 6 6 6 7 8 7 7 7 6 7 5 5 6 4 4 4 4 6 6 6 7 7 7 6 5 4 5 4
5 4 4 8 3 2 5 5 2 1 2 5 9 8 9 8 8 8 7 6 6 6 6 7 7 7 7 7 6 6 6 6 6 7 5 4 4 4 5 5 6 6 6 6 6 5 5 5 4
5 7 4 3 2 5 5 5 6 6 8 7 9 11 9 7 8 8 7 7 6 6 5 6 6 7 6 6 5 5 5 6 5 5 6 5 4 5 6 6 6 5 5 5 5 4 5 4 4
3 3 4 5 5 6 2 7 6 8 10 14 13 12 11 11 10 8 7 7 7 6 6 6 6 6 6 6 5 6 5 5 5 5 4 4 3 4 4 4 4 4 5 5 5 5 6 6 7
0 6 7 6 6 3 2 9 5 4 12 15 14 11 8 7 8 7 7 7 7 7 6 7 6 6 5 5 5 5 4 4 5 5 5 5 5 5 5 7 7 8 8 7 7 8 7 7 9
Wind_Direction
344 7 68 43 56 65 352 299 262 327 13 207 120 124 158 172 153 202 276 189 18 143 163 170 169 164 163 161 156 152 149 145 139 131 121 121 122 113 104 101 93 82 74 64 61 55 47 43 41
339 115 45 74 81 65 278 258 231 210 245 150 111 84 47 331 257 289 10 172 156 150 159 165 173 174 174 165 160 157 156 151 144 137 132 123 116 112 109 103 97 87 65 56 51 47 46 38 36
154 44 79 91 104 151 193 237 240 301 277 63 82 128 152 245 265 236 254 147 144 152 158 167 175 178 169 161 158 162 163 159 156 153 146 136 120 126 119 121 105 96 78 51 43 39 38 33 23
55 15 40 80 121 229 210 316 257 331 34 60 127 43 326 293 320 307 340 147 140 155 159 167 177 186 179 162 160 166 170 172 161 170 167 154 118 99 99 102 99 93 88 52 36 36 29 26 15
36 53 54 82 289 273 278 341 144 316 303 291 32 336 294 25 346 70 99 139 153 166 164 169 182 189 184 168 164 173 175 174 175 178 156 138 132 132 130 125 132 105 67 8 31 33 30 27 27
41 89 62 157 277 298 295 7 308 26 322 329 37 8 265 304 329 135 134 168 176 173 176 178 190 193 194 183 170 174 183 187 188 181 171 148 145 149 156 149 208 225 107 318 29 35 30 26 29
104 78 172 175 259 314 286 328 71 333 326 337 238 337 291 44 329 103 147 151 189 190 184 190 188 199 193 186 174 176 187 200 204 202 191 158 152 157 157 162 126 193 244 301 48 36 26 26 31
102 91 118 250 203 254 323 358 161 93 296 314 240 333 328 338 1 76 85 62 24 237 235 219 196 201 199 200 183 179 187 197 211 211 187 123 135 150 154 157 153 148 179 280 80 52 30 30 27
116 62 172 227 155 245 348 20 286 339 311 345 336 98 329 321 18 54 20 13 11 0 318 297 262 225 220 197 196 196 197 195 189 184 157 140 150 161 158 163 183 200 148 210 129 62 38 46 21
79 103 220 211 209 252 321 127 316 10 357 288 340 334 353 349 12 19 14 352 341 332 312 264 228 222 225 216 195 195 205 201 184 164 164 152 169 175 163 161 180 246 124 183 162 109 83 52 24
137 182 213 267 238 297 297 303 210 290 302 199 347 312 14 21 29 36 28 20 338 311 320 320 261 226 208 201 175 171 195 174 210 194 183 179 156 151 122 108 124 92 52 28 49 58 60 52 39
51 238 199 271 138 346 272 309 273 175 203 176 34 50 35 23 20 13 4 355 345 339 326 322 322 235 217 189 181 164 163 166 187 239 178 147 141 146 151 154 149 141 112 108 72 53 74 38 12
175 249 199 259 275 253 323 249 245 262 90 77 68 53 42 32 15 9 0 357 352 350 334 328 314 274 218 201 175 161 164 168 172 175 184 156 151 163 154 173 165 162 164 165 175 200 287 329 338
230 300 290 287 251 256 217 263 156 58 107 69 56 51 38 30 12 6 10 359 359 344 341 330 327 293 192 192 192 155 164 159 156 154 244 219 147 148 174 180 189 185 177 166 162 170 215 289 331
37 335 325 254 275 222 157 248 220 80 80 74 56 53 49 33 22 19 358 353 348 343 336 349 346 348 120 110 106 104 87 61 347 315 253 222 214 182 173 170 200 236 170 158 153 138 128 299 324
31 51 354 313 121 345 154 259 149 47 80 66 51 37 34 27 20 11 3 359 349 350 357 351 4 18 51 81 81 70 50 48 37 31 16 357 353 27 130 170 245 12 75 132 162 135 191 251 270
5 233 210 315 40 139 131 267 287 4 72 74 54 38 31 22 20 10 1 358 354 352 359 14 18 23 42 66 69 63 55 50 44 41 30 20 23 20 20 12 11 64 122 116 128 88 48 342 315
200 212 239 237 306 39 345 268 326 26 70 73 64 45 36 30 12 360 10 10 3 6 12 19 29 30 42 60 63 59 54 47 43 37 35 31 33 34 38 39 34 28 19 28 19 15 34 347 338
144 179 213 247 225 186 241 249 341 66 71 74 72 66 50 33 349 9 10 11 21 24 30 27 32 17 29 44 67 60 61 47 48 41 35 36 31 32 39 48 43 41 48 41 27 33 9 354 8
155 166 250 283 283 182 313 280 76 43 57 101 107 78 63 45 20 14 11 17 22 25 33 29 34 35 36 41 47 68 79 57 61 47 41 35 34 34 42 38 37 36 44 46 41 35 354 353 22
205 194 200 220 347 345 342 287 182 53 97 86 76 99 76 68 49 11 15 20 13 29 21 28 33 44 44 51 72 76 70 54 45 34 39 31 34 33 34 36 38 33 33 35 27 21 43 15 360
217 203 172 176 119 225 65 279 243 172 149 136 145 141 127 97 59 33 27 26 19 19 17 23 35 45 45 40 70 78 83 82 45 62 49 47 42 41 38 35 34 38 36 34 19 15 14 8 16
216 118 149 129 125 57 254 315 256 139 201 198 197 190 167 149 135 105 60 35 28 24 31 10 49 50 44 53 64 77 76 74 58 48 53 35 32 36 32 33 37 36 34 28 29 27 32 18 1
139 79 52 55 91 286 229 180 257 196 195 163 166 193 189 169 160 128 104 78 57 33 42 33 62 53 53 64 65 75 83 80 71 53 53 35 24 33 31 31 35 37 31 19 11 18 37 28 36
103 108 308 344 20 230 4 189 248 176 148 179 178 186 188 177 169 161 137 117 101 87 65 69 79 70 56 70 73 76 80 77 76 70 59 43 26 22 17 19 21 18 22 31 22 11 18 13 18
177 162 156 221 209 260 342 234 260 261 302 238 163 164 166 180 182 176 173 162 141 118 105 97 89 86 69 70 69 67 74 81 76 71 64 57 43 36 19 16 17 17 17 10 12 6 356 8 351
183 180 158 103 38 23 234 283 277 46 45 115 142 152 185 194 188 184 182 176 160 145 139 135 116 106 100 95 91 76 80 82 80 71 68 60 41 24 23 16 14 7 7 6 357 356 341 342 335
149 159 87 7 174 256 280 272 239 222 202 168 168 191 198 200 189 188 187 181 179 162 153 139 133 130 131 122 113 104 97 84 83 77 63 49 33 25 16 10 3 0 356 352 350 333 323 320 317
136 173 67 121 147 172 258 254 210 218 176 182 199 200 198 197 196 193 191 188 179 174 166 157 150 147 145 134 127 112 96 77 72 70 55 38 33 18 14 360 349 345 334 328 318 304 305 312 301
163 194 160 160 218 254 144 257 3 252 178 182 196 200 204 198 197 194 191 183 182 187 184 181 172 164 169 160 143 131 114 88 61 48 37 25 19 17 2 357 350 347 341 334 330 322 313 302 302